Weather History for Edwards AFB, CA

Change the Weather History Date:

Sunday, January 8, 2012

  Actual Average Record
Temperature  
Mean Temperature 44 °F -  
Max Temperature 59 °F 57 °F 70 °F (2009)
Min Temperature 29 °F 30 °F 15 °F (2000)
Degree Days  
Heating Degree Days 21    
Moisture  
Dew Point 9 °F    
Average Humidity 28    
Maximum Humidity 43    
Minimum Humidity 14    
Precipitation  
Precipitation 0.00 in - - ()
Sea Level Pressure  
Sea Level Pressure 30.25 in    
Wind  
Wind Speed 4 mph (NNE)    
Max Wind Speed 9 mph    
Max Gust Speed -    
Visibility 10 miles    
Events      
Averages and records for this station are not official NWS values.
T = Trace of Precipitation, MM = Missing Value Source: NWS Daily Summary

Daily Weather History Graph

Daily Weather History Graph

Search for Another Location

Airport:

Trip Planner

Search our weather history database for the weather conditions in past years. The results will help you decide how hot, cold, wet, or windy it might be!

Date:

Astronomy

Jan. 08, 2012 Rise Set
Actual Time 6:59 AM PST 4:56 PM PST
Civil Twilight 6:32 AM PST 5:24 PM PST
Nautical Twilight 6:00 AM PST 5:55 PM PST
Astronomical Twilight 5:30 AM PST 6:26 PM PST
Moon 4:43 PM PST (1/8) 6:21 AM PST (1/8)
Length of Visible Light 10h 52m
Length of Day
9h 56m
Full, 100% of the Moon is Illuminated
Jan 8
Full
Jan 8
Full
Jan 16
Last Quarter
Jan 22
New
Jan 30
First Quarter

Hourly Weather History & Observations

Time (PST) Temp. Windchill Dew Point Humidity Pressure Visibility Wind Dir Wind Speed Gust Speed Precip Events Conditions
12:55 AM 34.0 °F 31.0 °F 6.8 °F 32% 30.20 in 10.0 mi NNW 3.5 mph - N/A   Clear
1:55 AM 34.5 °F 27.9 °F 6.6 °F 31% 30.22 in 10.0 mi SE 8.1 mph - N/A   Clear
2:55 AM 31.1 °F 26.4 °F 7.0 °F 36% 30.23 in 10.0 mi West 4.6 mph - N/A   Clear
3:55 AM 34.3 °F - 8.6 °F 34% 30.24 in 10.0 mi Calm Calm - N/A   Clear
4:55 AM 36.5 °F - 9.0 °F 32% 30.24 in 10.0 mi Calm Calm - N/A   Clear
5:55 AM 31.1 °F 27.7 °F 8.8 °F 39% 30.26 in 40.0 mi SE 3.5 mph - N/A   Clear
6:55 AM 29.5 °F - 9.5 °F 43% 30.28 in 90.0 mi Calm Calm - N/A   Clear
7:55 AM 33.1 °F 27.7 °F 11.7 °F 41% 30.30 in 90.0 mi NE 5.8 mph - N/A   Partly Cloudy
8:55 AM 37.9 °F 34.4 °F 11.3 °F 33% 30.32 in 90.0 mi North 4.6 mph - N/A   Scattered Clouds
9:55 AM 44.4 °F 42.0 °F 13.6 °F 29% 30.31 in 90.0 mi North 4.6 mph - N/A   Mostly Cloudy
10:55 AM 52.0 °F - 15.4 °F 24% 30.28 in 90.0 mi NE 3.5 mph - N/A   Mostly Cloudy
11:55 AM 56.8 °F - 12.7 °F 18% 30.26 in 90.0 mi NE 5.8 mph - N/A   Mostly Cloudy
12:55 PM 58.1 °F - 11.3 °F 16% 30.22 in 90.0 mi ENE 8.1 mph - N/A   Mostly Cloudy
1:55 PM 58.8 °F - 9.9 °F 14% 30.20 in 90.0 mi NE 9.2 mph - N/A   Mostly Cloudy
2:55 PM 59.5 °F - 9.5 °F 14% 30.20 in 90.0 mi NE 8.1 mph - N/A   Mostly Cloudy
3:55 PM 59.2 °F - 10.2 °F 14% 30.20 in 90.0 mi NE 3.5 mph - N/A   Mostly Cloudy
4:55 PM 56.8 °F - 10.0 °F 16% 30.20 in 90.0 mi Calm Calm - N/A   Mostly Cloudy
5:55 PM 50.0 °F - 10.6 °F 21% 30.23 in 50.0 mi West 4.6 mph - N/A   Mostly Cloudy
6:55 PM 42.4 °F - 9.1 °F 26% 30.25 in 50.0 mi Calm Calm - N/A   Scattered Clouds
7:55 PM 37.8 °F - 7.3 °F 28% 30.27 in 50.0 mi Calm Calm - N/A   Scattered Clouds
8:55 PM 36.5 °F - 7.9 °F 30% 30.27 in 50.0 mi Calm Calm - N/A   Partly Cloudy
9:55 PM 35.2 °F 31.2 °F 8.2 °F 33% 30.29 in 50.0 mi West 4.6 mph - N/A   Partly Cloudy
10:55 PM 30.0 °F 26.5 °F 6.1 °F 36% 30.28 in 10.0 mi South 3.5 mph - N/A   Clear
11:55 PM 29.5 °F 23.4 °F 6.8 °F 38% 30.27 in 10.0 mi WNW 5.8 mph - N/A   Clear